COSMOS 2251 DEB, 35031

Orbit data source: Space-Track

COSMOS 2251 DEB, 35031 is space debris in LEO originally from a launch on Wed, 16 Jun 1993 UTC launched from the Plesetsk Missile And Space Complex (PKMTR). The debris from Iridium 33, an American commercial communications satellite, has been tracked extensively since its accidental collision with the defunct Russian satellite Cosmos 2251 in 2009. This event, occurring at high speed in low Earth orbit (LEO), generated thousands of pieces of space debris, significantly increasing the risk of further collisions. The Iridium 33 debris cloud has impacted space traffic management and orbital debris mitigation strategies, making it a subject of ongoing study in space situational awareness.

Loading next visibility...
Identifier
35031, 1993-036AGU
Orbit
LEO
Country
Flag of CISCIS
Related business
Manufacturer
Unknown
Mission
Spacecraft
Bus & Motor
Unknown
Mass
Unknown
Launch date (UTC)
1993-06-16 (33 years ago)
Launch vehicle
Unknown
Launch site
Plesetsk Missile And Space Complex (PKMTR)
Object type
Payload
Rocket body
Debris
Shape & HBR
Unknown shape, 0.1 m
Radar Cross Section
Small (<0.1 m²)

Expand to show TLE details & history
Last TLE update: 7 hours ago

TLE from 7 hours ago
0 COSMOS 2251 DEB
1 35031U 93036AGU 26170.53794307  .00000252  00000-0  90882-4 0  9997
2 35031  74.0387 271.3643 0019701 320.8804  39.0925 14.38488332679983
Epoch: 2026-06-19T12:54Z
TLE epoch observation values (Epoch: 2026-06-19T12:54:38.281Z)
Latitude
0.00003°
Longitude
169.93932°
Altitude
755.201 km
Speed
7.483 km/s
True Right ascension
18h 05m 27s
True Declination
0° 00' 00"
Sunlit
Object was in full shadow at epoch
Visualization orbit readout
Latitude
Unknown
Longitude
Unknown
Altitude
Unknown
Speed
Unknown
Apparent Right ascension
Unknown
Apparent Declination
Unknown
Sunlit
N/A
Visualization observer readout
Local Sidereal Time
06:17:52
Azimuth
Unknown
Elevation
Unknown
Doppler factor
Unknown
Orbital elements
Apogee altitude
775.183 km
Perigee altitude
747.053 km
Semi-major axis
7,139.255 km
Eccentricity
0.00197
Inclination
74.0387°
RAAN
271.3643°
Arg. of periapsis
320.8804°
True anomaly
39.23513°
Mean anomaly
39.0925°
Eccentric anomaly
39.16379°
Mean motion
3.59802 °/min
Orbital period
100.05 mins
BSTAR
0.000090882

Documentation

Showing up to 5 results
|